This demonstration page uses our WeatherBlox Daily Observations layout. Learn more.

Left ArrowRight Arrow

31.84235, -102.49876

Hourly Observations for August 30, 2015

Temp ( °F °C ) Dew Point ( °F °C ) Humidity (%) Winds ( mph kmh ) Pressure ( in mb ) Visibility ( mi km ) Precip ( " mm )
12:53 am 00:53 Cloudy 71 21.7 57 13.9 61 61 E 7 11 30.00 1016 10 16 0.00 0.00
1:53 am 01:53 Clear 70 21.1 55 12.8 59 59 SSE 3 6 29.99 1016 10 16 0.00 0.00
2:53 am 02:53 Clear 69 20.6 54 12.2 59 59 SE 6 9 29.97 1015 10 16 0.00 0.00
3:53 am 03:53 Clear 69 20.6 54 12.2 59 59 SE 6 9 29.96 1015 10 16 0.00 0.00
4:53 am 04:53 Mostly Clear 68 20 54 12.2 61 61 Calm 29.97 1015 10 16 0.00 0.00
5:53 am 05:53 Clear 68 20 54 12.2 61 61 ESE 6 9 29.98 1015 10 16 0.00 0.00
6:53 am 06:53 Clear 64 17.8 54 12.2 70 70 ENE 5 7 29.99 1016 10 16 0.00 0.00
7:53 am 07:53 Sunny 64 17.8 54 12.2 70 70 NNE 6 9 30.01 1016 9 14 0.00 0.00
8:53 am 08:53 Sunny 70 21.1 55 12.8 59 59 ENE 6 9 30.01 1016 10 16 0.00 0.00
9:53 am 09:53 Sunny 74 23.3 55 12.8 52 52 SE 7 11 30.02 1017 10 16 0.00 0.00
10:53 am 10:53 Sunny 79 26.1 54 12.2 42 42 SSE 7 11 30.02 1017 10 16 0.00 0.00
11:53 am 11:53 Sunny 84 28.9 53 11.7 34 34 S 8 13 30.01 1016 10 16 0.00 0.00
12:53 pm 12:53 Sunny 86 30 52 11.1 31 31 VRB 6 9 29.99 1016 10 16 0.00 0.00
1:53 pm 13:53 Partly Cloudy 89 31.7 52 11.1 28 28 S 9 15 29.97 1015 10 16 0.00 0.00
2:53 pm 14:53 Sunny 89 31.7 51 10.6 27 27 S 7 11 29.95 1014 10 16 0.00 0.00
3:53 pm 15:53 Sunny 89 31.7 50 10 26 26 undefined N/A 29.93 1013 10 16 0.00 0.00
4:53 pm 16:53 Sunny 90 32.2 49 9.4 24 24 S 10 17 29.89 1012 10 16 0.00 0.00
5:53 pm 17:53 Sunny 91 32.8 49 9.4 24 24 undefined N/A 29.88 1012 10 16 0.00 0.00
6:53 pm 18:53 Mostly Sunny 89 31.7 48 8.9 24 24 SE 9 15 29.88 1012 10 16 0.00 0.00
7:53 pm 19:53 Mostly Sunny 87 30.6 49 9.4 27 27 S 10 17 29.87 1012 10 16 0.00 0.00
8:53 pm 20:53 Clear 82 27.8 55 12.8 40 40 S 13 20 29.89 1012 10 16 0.00 0.00
9:53 pm 21:53 Clear 79 26.1 56 13.3 45 45 S 13 20 29.91 1013 10 16 0.00 0.00
10:53 pm 22:53 Clear 78 25.6 54 12.2 43 43 S 12 19 29.91 1013 10 16 0.00 0.00
11:53 pm 23:53 Clear 76 24.4 57 13.9 52 52 S 13 20 29.91 1013 10 16 0.00 0.00

Powered by AerisWeather